カタログに戻る

STARLINK-6331

運用中通信VLEO
NORAD 57351·PAYLOAD·🇺🇸 United States

打ち上げ Jul 16, 2023 から Cape Canaveral Space Force Station

Loading…

次のパス (今後24時間)

TLE

最新Source: CelesTrak SupGP

元期: Sep 14, 2026, 21:20 UTC

1 57351C 23099Z   26257.88937500  .00027432  00000+0  99385-3 0  2577
2 57351  43.0023 260.1690 0002153 265.7840 174.3018 15.27554990    14

AllMySatでSTARLINK-6331をリアルタイム追跡

Download on the App Store